SWA2857 KOAK-KLAX

Flight info

Callsign SWA2857
Flight time 0h 57m
Altitude 41000
Route CNDEL5 SUSEY EBAYE BURGL IRNMN2
Aircraft B737/M-SADE2E3GIJ4RWZ/LB1D1

Departure

Time 2026-05-04 14:55
Airport San Francisco Bay Oakland International Airport (KOAK)

Arrival

Time 2026-05-04 15:52
Airport Los Angeles International Airport (KLAX)
Time Latitude Longitude Altitude Speed Heading
2026-05-04 14:18 37.71045 -122.21564 9 ft 0 kts 298°
2026-05-04 14:32 37.71037 -122.21545 10 ft 3 kts 298°
2026-05-04 14:32 37.71028 -122.21524 9 ft 3 kts 298°
2026-05-04 14:33 37.71019 -122.21504 8 ft 3 kts 298°
2026-05-04 14:33 37.71014 -122.21482 8 ft 3 kts 239°
2026-05-04 14:33 37.71019 -122.21474 10 ft 0 kts 220°
2026-05-04 14:51 37.71016 -122.21477 8 ft 3 kts 220°
2026-05-04 14:51 37.70962 -122.21530 10 ft 13 kts 216°
2026-05-04 14:52 37.70880 -122.21595 8 ft 14 kts 211°
2026-05-04 14:52 37.70803 -122.21664 10 ft 14 kts 221°
2026-05-04 14:52 37.70722 -122.21751 8 ft 16 kts 219°
2026-05-04 14:52 37.70625 -122.21761 8 ft 15 kts 140°
2026-05-04 14:53 37.70557 -122.21661 8 ft 15 kts 130°
2026-05-04 14:53 37.70492 -122.21565 9 ft 14 kts 130°
2026-05-04 14:53 37.70418 -122.21455 8 ft 18 kts 130°
2026-05-04 14:53 37.70311 -122.21375 8 ft 18 kts 160°
2026-05-04 14:54 37.70199 -122.21388 8 ft 17 kts 219°
2026-05-04 14:54 37.70186 -122.21479 9 ft 10 kts 306°
2026-05-04 14:54 37.70358 -122.21739 8 ft 88 kts 310°
2026-05-04 14:54 37.70999 -122.22703 54 ft 191 kts 310°
2026-05-04 14:55 37.71962 -122.24078 1033 ft 218 kts 311°
2026-05-04 14:55 37.72958 -122.25506 2205 ft 217 kts 308°
2026-05-04 14:55 37.73969 -122.27086 2440 ft 247 kts 308°
2026-05-04 14:55 37.75093 -122.28826 2133 ft 257 kts 308°
2026-05-04 14:56 37.76228 -122.30529 2116 ft 251 kts 309°
2026-05-04 14:56 37.77354 -122.32210 2226 ft 252 kts 309°
2026-05-04 14:56 37.78497 -122.33940 3003 ft 258 kts 305°
2026-05-04 14:56 37.79170 -122.36014 4273 ft 258 kts 276°
2026-05-04 14:57 37.78967 -122.38259 5433 ft 263 kts 247°
2026-05-04 14:57 37.77912 -122.40161 6729 ft 270 kts 218°
2026-05-04 14:57 37.76267 -122.41291 8123 ft 273 kts 195°
2026-05-04 14:57 37.74393 -122.41830 9459 ft 282 kts 189°
2026-05-04 14:58 37.72428 -122.42257 9903 ft 288 kts 188°
2026-05-04 14:58 37.70434 -122.42664 9982 ft 291 kts 188°
2026-05-04 14:58 37.68438 -122.43079 9992 ft 291 kts 188°
2026-05-04 14:58 37.66445 -122.43508 9985 ft 290 kts 188°
2026-05-04 14:59 37.64464 -122.43944 9990 ft 289 kts 188°
2026-05-04 14:59 37.62487 -122.44387 10002 ft 288 kts 188°
2026-05-04 14:59 37.58532 -122.45283 9991 ft 289 kts 189°
2026-05-04 15:00 37.56552 -122.45733 9994 ft 289 kts 189°
2026-05-04 15:00 37.54576 -122.46183 10005 ft 289 kts 189°
2026-05-04 15:00 37.52593 -122.46634 10004 ft 290 kts 189°
2026-05-04 15:01 37.48661 -122.46466 10023 ft 288 kts 153°
2026-05-04 15:01 37.47008 -122.44915 10211 ft 313 kts 134°
2026-05-04 15:01 37.45473 -122.42893 11275 ft 322 kts 132°
2026-05-04 15:01 37.43955 -122.40800 12629 ft 326 kts 131°
2026-05-04 15:02 37.42423 -122.38669 13955 ft 331 kts 130°
2026-05-04 15:02 37.40867 -122.36510 15114 ft 336 kts 130°
2026-05-04 15:02 37.39280 -122.34321 16303 ft 341 kts 131°
2026-05-04 15:02 37.37665 -122.32105 17487 ft 346 kts 131°
2026-05-04 15:03 37.36024 -122.29864 18611 ft 352 kts 131°
2026-05-04 15:03 37.34351 -122.27585 19629 ft 357 kts 130°
2026-05-04 15:03 37.32739 -122.25395 20618 ft 362 kts 130°
2026-05-04 15:03 37.31000 -122.23038 21690 ft 366 kts 130°
2026-05-04 15:04 37.29256 -122.20675 22688 ft 372 kts 130°
2026-05-04 15:04 37.27474 -122.18260 23522 ft 382 kts 131°
2026-05-04 15:04 37.25644 -122.15787 24235 ft 390 kts 131°
2026-05-04 15:04 37.23788 -122.13282 25058 ft 394 kts 132°
2026-05-04 15:05 37.21910 -122.10750 25852 ft 399 kts 132°
2026-05-04 15:05 37.20008 -122.08189 26614 ft 404 kts 133°
2026-05-04 15:05 37.18079 -122.05593 27360 ft 409 kts 133°
2026-05-04 15:05 37.16125 -122.02964 28040 ft 415 kts 133°
2026-05-04 15:06 37.14136 -122.00290 28691 ft 422 kts 135°
2026-05-04 15:06 37.12112 -121.97572 29229 ft 431 kts 135°
2026-05-04 15:06 37.10050 -121.94806 29840 ft 437 kts 135°
2026-05-04 15:07 37.05864 -121.89197 30986 ft 444 kts 136°
2026-05-04 15:07 37.03740 -121.86354 31515 ft 448 kts 136°
2026-05-04 15:07 37.01601 -121.83491 31987 ft 453 kts 136°
2026-05-04 15:07 36.99440 -121.80603 32404 ft 457 kts 137°
2026-05-04 15:08 36.97255 -121.77683 32755 ft 463 kts 139°
2026-05-04 15:08 36.95041 -121.74731 33126 ft 467 kts 140°
2026-05-04 15:08 36.92817 -121.71764 33621 ft 468 kts 139°
2026-05-04 15:08 36.90598 -121.68806 34225 ft 465 kts 139°
2026-05-04 15:09 36.88392 -121.65870 34768 ft 462 kts 139°
2026-05-04 15:09 36.86194 -121.62947 35254 ft 461 kts 140°
2026-05-04 15:09 36.83997 -121.60029 35669 ft 462 kts 140°
2026-05-04 15:10 36.79587 -121.54177 36489 ft 462 kts 141°
2026-05-04 15:10 36.77393 -121.51263 36983 ft 460 kts 140°
2026-05-04 15:10 36.73066 -121.45536 38019 ft 455 kts 141°
2026-05-04 15:11 36.70896 -121.42675 38440 ft 454 kts 140°
2026-05-04 15:11 36.68730 -121.39804 38822 ft 454 kts 140°
2026-05-04 15:11 36.66564 -121.36953 39148 ft 453 kts 140°
2026-05-04 15:11 36.64393 -121.34102 39420 ft 454 kts 140°
2026-05-04 15:12 36.62217 -121.31241 39697 ft 456 kts 140°
2026-05-04 15:12 36.60036 -121.28373 40007 ft 456 kts 140°
2026-05-04 15:12 36.57858 -121.25508 40321 ft 456 kts 140°
2026-05-04 15:12 36.55674 -121.22640 40619 ft 456 kts 140°
2026-05-04 15:13 36.53494 -121.19778 40907 ft 456 kts 140°
2026-05-04 15:13 36.51305 -121.16908 41091 ft 459 kts 140°
2026-05-04 15:13 36.49091 -121.14011 41069 ft 463 kts 140°
2026-05-04 15:14 36.44661 -121.08210 41061 ft 460 kts 140°
2026-05-04 15:14 36.40363 -121.02410 41063 ft 457 kts 137°
2026-05-04 15:15 36.36236 -120.96409 41082 ft 458 kts 136°
2026-05-04 15:15 36.32107 -120.90387 41067 ft 458 kts 137°
2026-05-04 15:16 36.25868 -120.81411 41068 ft 459 kts 137°
2026-05-04 15:17 36.19591 -120.72444 41074 ft 460 kts 137°
2026-05-04 15:17 36.13303 -120.63484 41061 ft 459 kts 137°
2026-05-04 15:18 36.09111 -120.57522 41075 ft 459 kts 137°
2026-05-04 15:19 36.02849 -120.48633 41062 ft 459 kts 138°
2026-05-04 15:19 35.96550 -120.39718 41059 ft 460 kts 137°
2026-05-04 15:20 35.92337 -120.33766 41051 ft 461 kts 137°
2026-05-04 15:20 35.88099 -120.27830 41059 ft 459 kts 141°
2026-05-04 15:21 35.83163 -120.23101 41072 ft 445 kts 155°
2026-05-04 15:22 35.76082 -120.17914 41053 ft 445 kts 156°
2026-05-04 15:22 35.68147 -120.11970 41059 ft 446 kts 155°
2026-05-04 15:23 35.62858 -120.07978 41058 ft 446 kts 155°
2026-05-04 15:23 35.57566 -120.03982 41041 ft 447 kts 156°
2026-05-04 15:24 35.46965 -119.95994 41062 ft 448 kts 156°
2026-05-04 15:25 35.41648 -119.91997 41054 ft 449 kts 156°
2026-05-04 15:26 35.33662 -119.86002 41057 ft 449 kts 156°
2026-05-04 15:26 35.25720 -119.79732 39867 ft 458 kts 152°
2026-05-04 15:27 35.23188 -119.77347 39180 ft 460 kts 151°
2026-05-04 15:27 35.18174 -119.72497 37530 ft 458 kts 154°
2026-05-04 15:28 35.13170 -119.67741 35922 ft 453 kts 156°
2026-05-04 15:28 35.10668 -119.65402 35028 ft 453 kts 155°
2026-05-04 15:28 35.05640 -119.60731 33123 ft 453 kts 156°
2026-05-04 15:29 35.03165 -119.58423 32374 ft 444 kts 156°
2026-05-04 15:30 34.93629 -119.49628 29640 ft 417 kts 156°
2026-05-04 15:30 34.86953 -119.43465 28428 ft 394 kts 158°
2026-05-04 15:31 34.82430 -119.39489 27882 ft 405 kts 157°
2026-05-04 15:31 34.80116 -119.37476 27591 ft 399 kts 159°
2026-05-04 15:32 34.73412 -119.31439 26480 ft 407 kts 156°
2026-05-04 15:32 34.68856 -119.27455 25135 ft 399 kts 156°
2026-05-04 15:33 34.64413 -119.23597 23998 ft 383 kts 155°
2026-05-04 15:34 34.57980 -119.18117 23212 ft 383 kts 155°
2026-05-04 15:34 34.55810 -119.16221 22842 ft 385 kts 154°
2026-05-04 15:34 34.51485 -119.12433 21774 ft 383 kts 152°
2026-05-04 15:35 34.47256 -119.08561 20699 ft 376 kts 153°
2026-05-04 15:35 34.45150 -119.06712 20192 ft 371 kts 153°
2026-05-04 15:35 34.43079 -119.04909 19663 ft 365 kts 153°
2026-05-04 15:36 34.38976 -119.01368 18472 ft 358 kts 152°
2026-05-04 15:36 34.36950 -118.99617 17767 ft 357 kts 152°
2026-05-04 15:36 34.34945 -118.97882 17142 ft 352 kts 151°
2026-05-04 15:37 34.32981 -118.96152 16668 ft 346 kts 150°
2026-05-04 15:37 34.31066 -118.94405 16219 ft 345 kts 150°
2026-05-04 15:37 34.29148 -118.92653 15813 ft 347 kts 149°
2026-05-04 15:37 34.27212 -118.90898 15392 ft 349 kts 149°
2026-05-04 15:38 34.25266 -118.89133 14957 ft 350 kts 148°
2026-05-04 15:38 34.23328 -118.87357 14539 ft 350 kts 148°
2026-05-04 15:38 34.21395 -118.85576 14123 ft 350 kts 147°
2026-05-04 15:38 34.19550 -118.83878 13701 ft 347 kts 147°
2026-05-04 15:39 34.18053 -118.82502 13319 ft 340 kts 147°
2026-05-04 15:39 34.14486 -118.78989 12518 ft 321 kts 142°
2026-05-04 15:40 34.12865 -118.77194 12159 ft 312 kts 141°
2026-05-04 15:40 34.11293 -118.75449 11815 ft 303 kts 141°
2026-05-04 15:40 34.09765 -118.73763 11508 ft 301 kts 141°
2026-05-04 15:40 34.08218 -118.72068 11198 ft 299 kts 142°
2026-05-04 15:41 34.06655 -118.70374 10879 ft 297 kts 141°
2026-05-04 15:41 34.05122 -118.68714 10546 ft 296 kts 141°
2026-05-04 15:41 34.03835 -118.67258 10263 ft 295 kts 134°
2026-05-04 15:41 34.02864 -118.65076 9929 ft 290 kts 107°
2026-05-04 15:42 34.02556 -118.62744 9596 ft 284 kts 98°
2026-05-04 15:42 34.02355 -118.60335 9270 ft 286 kts 97°
2026-05-04 15:42 34.02152 -118.57963 8944 ft 284 kts 97°
2026-05-04 15:42 34.01940 -118.55605 8629 ft 282 kts 97°
2026-05-04 15:43 34.01727 -118.53260 8308 ft 281 kts 97°
2026-05-04 15:43 34.01509 -118.50924 8010 ft 280 kts 97°
2026-05-04 15:43 34.01292 -118.48619 7724 ft 274 kts 97°
2026-05-04 15:43 34.01082 -118.46371 7417 ft 272 kts 96°
2026-05-04 15:44 34.01205 -118.44091 7115 ft 266 kts 77°
2026-05-04 15:44 34.01601 -118.42007 6841 ft 252 kts 76°
2026-05-04 15:44 34.01978 -118.39975 6573 ft 238 kts 77°
2026-05-04 15:44 34.02316 -118.38082 6295 ft 232 kts 77°
2026-05-04 15:45 34.02653 -118.36164 6066 ft 232 kts 78°
2026-05-04 15:45 34.02914 -118.34268 6021 ft 233 kts 83°
2026-05-04 15:45 34.03104 -118.32350 5906 ft 228 kts 83°
2026-05-04 15:45 34.03286 -118.30472 5499 ft 224 kts 84°
2026-05-04 15:46 34.03473 -118.28621 5107 ft 219 kts 83°
2026-05-04 15:46 34.03656 -118.26823 4744 ft 213 kts 84°
2026-05-04 15:46 34.03833 -118.25047 4225 ft 214 kts 84°
2026-05-04 15:46 34.03933 -118.23269 3728 ft 213 kts 99°
2026-05-04 15:47 34.03326 -118.21679 3239 ft 211 kts 135°
2026-05-04 15:47 34.02086 -118.20837 2795 ft 205 kts 173°
2026-05-04 15:47 34.00759 -118.20990 2649 ft 185 kts 202°
2026-05-04 15:47 33.99599 -118.21618 2323 ft 181 kts 205°
2026-05-04 15:48 33.98440 -118.22265 2245 ft 186 kts 206°
2026-05-04 15:48 33.97464 -118.23265 2215 ft 185 kts 236°
2026-05-04 15:48 33.96697 -118.25897 2212 ft 154 kts 262°
2026-05-04 15:49 33.96561 -118.27189 2213 ft 158 kts 261°
2026-05-04 15:49 33.96428 -118.28520 2095 ft 161 kts 265°
2026-05-04 15:49 33.96263 -118.29872 1969 ft 161 kts 259°
2026-05-04 15:49 33.96169 -118.31157 1592 ft 158 kts 250°
2026-05-04 15:50 33.95931 -118.32374 1346 ft 137 kts 266°
2026-05-04 15:50 33.95916 -118.33472 1129 ft 124 kts 266°
2026-05-04 15:50 33.95815 -118.34489 1039 ft 124 kts 261°
2026-05-04 15:50 33.95702 -118.35512 921 ft 123 kts 262°
2026-05-04 15:51 33.95599 -118.36528 715 ft 120 kts 262°
2026-05-04 15:51 33.95496 -118.37503 561 ft 116 kts 262°
2026-05-04 15:51 33.95386 -118.38462 345 ft 116 kts 263°
2026-05-04 15:51 33.95293 -118.39420 232 ft 115 kts 263°
2026-05-04 15:52 33.95193 -118.40368 119 ft 114 kts 262°
2026-05-04 15:52 33.95105 -118.41241 94 ft 93 kts 263°
2026-05-04 15:52 33.95039 -118.41885 93 ft 45 kts 263°
2026-05-04 15:52 33.95009 -118.42056 92 ft 17 kts 249°
2026-05-04 15:53 33.94945 -118.42188 94 ft 18 kts 229°
2026-05-04 15:53 33.94845 -118.42274 97 ft 18 kts 195°
2026-05-04 15:53 33.94730 -118.42274 94 ft 17 kts 174°
2026-05-04 15:53 33.94687 -118.42187 93 ft 13 kts 84°
2026-05-04 15:54 33.94698 -118.42084 93 ft 12 kts 83°
2026-05-04 15:54 33.94708 -118.41985 92 ft 12 kts 83°
2026-05-04 15:54 33.94717 -118.41892 92 ft 14 kts 84°
2026-05-04 15:54 33.94731 -118.41752 92 ft 20 kts 83°
2026-05-04 15:55 33.94749 -118.41575 96 ft 23 kts 83°
2026-05-04 15:55 33.94777 -118.41389 95 ft 22 kts 72°
2026-05-04 15:55 33.94799 -118.41219 94 ft 20 kts 84°
2026-05-04 15:55 33.94816 -118.41052 94 ft 20 kts 83°
2026-05-04 15:56 33.94833 -118.40886 95 ft 21 kts 83°
2026-05-04 15:56 33.94853 -118.40696 93 ft 24 kts 83°
2026-05-04 15:56 33.94873 -118.40506 93 ft 22 kts 83°
2026-05-04 15:56 33.94891 -118.40327 93 ft 21 kts 83°
2026-05-04 15:57 33.94908 -118.40163 94 ft 16 kts 83°
2026-05-04 15:57 33.94864 -118.40071 93 ft 14 kts 138°
2026-05-04 15:57 33.94799 -118.40006 93 ft 9 kts 181°
2026-05-04 15:57 33.94769 -118.40054 94 ft 7 kts 242°
2026-05-04 15:58 33.94764 -118.40066 92 ft 0 kts 242°